Weather History for PATA - August, 2013

Change the Weather History Date:

Friday, August 9, 2013

  Actual Average Record
Temperature  
Mean Temperature 58 °F -  
Max Temperature 64 °F 65 °F 80 °F (1957)
Min Temperature 53 °F 47 °F 33 °F (1988)
Degree Days  
Heating Degree Days 6    
Growing Degree Days 8 (Base 50)    
Moisture  
Dew Point 50 °F    
Average Humidity 72    
Maximum Humidity 84    
Minimum Humidity 52    
Precipitation  
Precipitation 0.01 in - - ()
Sea Level Pressure  
Sea Level Pressure 29.66 in    
Wind  
Wind Speed 4 mph (WNW)    
Max Wind Speed 7 mph    
Max Gust Speed -    
Visibility 10 miles    
Events Rain    
Averages and records for this station are not official NWS values.
T = Trace of Precipitation, MM = Missing Value Source: NWS Daily Summary

Daily Weather History Graph

Daily Weather History Graph

Search for Another Location

Airport or City:

Trip Planner

Search our weather history database for the weather conditions in past years. The results will help you decide how hot, cold, wet, or windy it might be!

Date:

Astronomy

Aug. 09, 2013 Rise Set
Actual Time 5:33 AM AKDT 10:51 PM AKDT
Civil Twilight 4:13 AM AKDT 12:09 AM AKDT
Nautical Twilight Sun does not set Sun does not set
Astronomical Twilight Sun does not set Sun does not set
Moon 10:09 AM AKDT (8/9) 10:17 PM AKDT (8/9)
Length of Visible Light 19h 56m
Length of Day
17h 17m
Waxing Crescent, 8% of the Moon is Illuminated
Aug 9
Waxing Crescent
Aug 14
First Quarter
Aug 20
Full
Aug 28
Last Quarter
Sep 5
New

Hourly Weather History & Observations

Time (AKDT) Temp. Dew Point Humidity Pressure Visibility Wind Dir Wind Speed Gust Speed Precip Events Conditions
12:52 AM 64.0 °F 46.0 °F 52% 29.61 in 10.0 mi West 6.9 mph - N/A   Scattered Clouds
1:52 AM 62.1 °F 50.0 °F 65% 29.62 in 10.0 mi Variable 3.5 mph - N/A   Mostly Cloudy
2:52 AM 55.9 °F 46.0 °F 69% 29.65 in 10.0 mi Calm Calm - N/A   Mostly Cloudy
3:52 AM 55.0 °F 46.0 °F 72% 29.67 in 10.0 mi Calm Calm - N/A   Overcast
4:52 AM 54.0 °F 46.9 °F 77% 29.67 in 10.0 mi NNW 3.5 mph - N/A   Overcast
5:52 AM 54.0 °F 48.0 °F 80% 29.67 in 10.0 mi NW 3.5 mph - N/A   Overcast
6:52 AM 54.0 °F 48.0 °F 80% 29.68 in 10.0 mi Calm Calm - N/A   Overcast
7:52 AM 53.1 °F 48.0 °F 83% 29.67 in 10.0 mi NE 3.5 mph - N/A   Mostly Cloudy
8:52 AM 57.0 °F 48.9 °F 74% 29.66 in 10.0 mi Calm Calm - N/A   Mostly Cloudy
9:52 AM 57.9 °F 52.0 °F 81% 29.67 in 10.0 mi West 3.5 mph - N/A   Overcast
10:52 AM 57.9 °F 53.1 °F 84% 29.69 in 10.0 mi West 5.8 mph - 0.00 in Rain Light Rain
11:52 AM 59.0 °F 54.0 °F 83% 29.67 in 10.0 mi West 4.6 mph - 0.01 in   Overcast
12:52 PM 59.0 °F 51.1 °F 75% 29.67 in 10.0 mi West 5.8 mph - N/A   Overcast
1:52 PM 59.0 °F 48.9 °F 69% 29.67 in 10.0 mi West 6.9 mph - N/A   Overcast
2:52 PM 60.1 °F 50.0 °F 69% 29.66 in 10.0 mi NW 5.8 mph - N/A   Overcast
3:52 PM 63.0 °F 51.1 °F 65% 29.65 in 10.0 mi SW 5.8 mph - N/A   Scattered Clouds
4:52 PM 63.0 °F 51.1 °F 65% 29.66 in 10.0 mi SW 4.6 mph - N/A   Overcast
5:52 PM 62.1 °F 53.1 °F 72% 29.66 in 10.0 mi SW 6.9 mph - N/A   Mostly Cloudy
6:52 PM 62.1 °F 52.0 °F 70% 29.66 in 9.0 mi Variable 4.6 mph - N/A   Mostly Cloudy
7:52 PM 63.0 °F 51.1 °F 65% 29.65 in 10.0 mi Calm Calm - N/A   Mostly Cloudy
8:52 PM 63.0 °F 52.0 °F 67% 29.65 in 10.0 mi Calm Calm - N/A   Overcast
9:52 PM 63.0 °F 48.9 °F 60% 29.66 in 9.0 mi Calm Calm - N/A   Overcast
10:52 PM 59.0 °F 48.9 °F 69% 29.67 in 7.0 mi NW 3.5 mph - N/A   Scattered Clouds
11:52 PM 54.0 °F 46.9 °F 77% 29.68 in 8.0 mi North 4.6 mph - N/A   Scattered Clouds